Regional Weather Roundup
Issued by NWS

Home | Current Version | Previous Version | Text Only | Print | Product List | Glossary On
Versions: 1 2 3 4 5 6 7 8 9 10 11 12 13 14 15 16 17 18 19 20 21 22 23 24 25 26 27 28 29 30 31 32 33 34 35 36 37 38 39 40 41 42 43 44 45 46 47 48 49 50
000
ASUS43 KMKX 230800
RWRWI

WISCONSIN REGIONAL WEATHER ROUNDUP
NATIONAL WEATHER SERVICE MILWAUKEE/SULLIVAN WI
300 AM CDT TUE MAY 23 2017

NOTE: "FAIR" INDICATES FEW OR NO CLOUDS BELOW 12,000 FEET WITH NO
SIGNIFICANT WEATHER AND/OR OBSTRUCTIONS TO VISIBILITY.

WIZ001-002-006>008-014>016-023>028-230900-
NORTHWEST WISCONSIN

CITY           SKY/WX    TMP DP  RH WIND       PRES   REMARKS
SUPERIOR ARPT  NOT AVBL
ASHLAND        CLOUDY    45  44  97 CALM      29.81F
HAYWARD        CLOUDY    41  39  93 CALM      29.81S
SIREN          CLOUDY    42  41  97 CALM      29.81F
CUMBERLAND     CLOUDY    45  43  93 CALM      29.81S
RICE LAKE      DRIZZLE   47  46  94 CALM      29.82F
CHETEK         LGT RAIN  47  47  99 CALM      29.80F
LADYSMITH      CLOUDY    44  43  97 CALM      29.81F
EAU CLAIRE     CLOUDY    51  48  89 N5        29.78F
MENOMONIE      LGT RAIN  51  48  87 N3        29.80S
NEW RICHMOND   LGT RAIN  49  47  94 CALM      29.82S
OSCEOLA        RAIN      49  49 100 CALM      29.84S
$$

WIZ003>005-009-010-017-018-230900-
NORTH CENTRAL WISCONSIN

CITY           SKY/WX    TMP DP  RH WIND       PRES   REMARKS
MANITOWISH WTR FOG       38  38 100 CALM      29.81F VSB 3/4
ARBOR VITAE    CLOUDY    42  40  96 CALM      29.81S
WOODRUFF       CLOUDY    42  40  96 CALM      29.81S
RHINELANDER    CLOUDY    43  41  93 CALM      29.82S
EAGLE RIVER    CLOUDY    39  39 100 CALM      29.82R FOG
LAND O LAKES   CLOUDY    42  42  99 CALM      29.83S FOG
PHILLIPS       CLOUDY    39  39 100 CALM      29.80S
TOMAHAWK       CLOUDY    40  39  97 CALM      29.82S
MEDFORD        LGT RAIN  47  42  82 SE5       29.80S
MERRILL        DRIZZLE   44  44 100 CALM      29.82F
$$

WIZ029-030-035-036-043>047-230900-
CENTRAL WISCONSIN

CITY           SKY/WX    TMP DP  RH WIND       PRES   REMARKS
WAUSAU         LGT RAIN  48  43  82 CALM      29.79F
MOSINEE        LGT RAIN  46  45  93 E6        29.82S
MARSHFIELD     LGT RAIN  49  45  86 E5        29.78F
STEVENS POINT  RAIN      49  47  93 CALM      29.82R
WAUPACA        LGT RAIN  54  47  77 NE9       29.78F
WAUTOMA        CLOUDY    53  51  93 N5        29.77F
WISC RAPIDS    LGT RAIN  51  49  92 E10       29.78F
CAMP DOUGLAS   NOT AVBL
$$

WIZ011>013-019>022-031-037>040-048>050-230900-
NORTHEAST WISCONSIN

CITY           SKY/WX    TMP DP  RH WIND       PRES   REMARKS
ANTIGO         CLOUDY    46  44  92 CALM      29.82F
SHAWANO        CLOUDY    52  47  82 E6        29.82F
OCONTO         PTCLDY    41  41  99 CALM      29.82F
STURGEON BAY   PTCLDY    47  44  90 E6        29.82F
GREEN BAY      CLOUDY    50  46  86 E5        29.80F
MANITOWOC      CLOUDY    50  45  81 CALM      29.81F
APPLETON       CLOUDY    54  39  58 E12       29.78F
CLINTONVILLE   CLOUDY    50  45  81 NE5       29.80F
OSHKOSH        CLOUDY    57  54  89 S3        29.78S
$$

WIZ032>034-041-042-053>061-230900-
SOUTHWEST WISCONSIN

CITY           SKY/WX    TMP DP  RH WIND       PRES   REMARKS
LA CROSSE      CLOUDY    54  53  97 CALM      29.76F FOG
SPARTA         FOG       49  49 100 CALM      29.77F VSB 3/4
VIROQUA        CLOUDY    51  51 100 MISG      29.78S VSB 3/4
BOSCOBEL       FOG       51  50  96 CALM      29.77F VSB 3/4
PRAIRIE DU CHI MOCLDY    51  50  96 CALM      29.77F
PLATTEVILLE    CLEAR     55  55 100 S7        29.78F
$$

WIZ056-057-062-063-064-067-068-230900-
SOUTH CENTRAL WISCONSIN

CITY           SKY/WX    TMP DP  RH WIND       PRES   REMARKS
REEDSBURG      CLOUDY    54  54 100 CALM      29.76F
BARABOO/DELLS  CLOUDY    53  51  94 CALM      29.76F
LONE ROCK      NOT AVBL
MINERAL POINT  MOCLDY    52  52 100 S5        29.77F
MADISON        PTCLDY    55  54  96 S7        29.76F
MIDDLETON      PTCLDY    55  53  95 SE7       29.77F
WATERTOWN      CLOUDY    56  56 100 CALM      29.79F
MONROE         PTCLDY    54  54 100 S7        29.78F
JANESVILLE     CLOUDY    57  55  94 S7        29.79F
$$

WIZ051-052-058>065-066-070>072-230900-
SOUTHEAST WISCONSIN

CITY           SKY/WX    TMP DP  RH WIND       PRES   REMARKS
MILWAUKEE      CLOUDY    59  55  87 SW7       29.80F
WAUKESHA       CLOUDY    54  52  94 S5        29.82S
MILWAUKEE/TIMM   N/A     55  50  82 S7        29.81F
RACINE         CLOUDY    58  53  84 SW8       29.82F
KENOSHA        CLOUDY    58  53  84 SW7       29.81F
FOND DU LAC    CLOUDY    58  53  84 NW3       29.79S
SHEBOYGAN      CLOUDY    54  52  93 NE5       29.79F
WEST BEND      MOCLDY    54  54 100 SW3       29.80F
JUNEAU         MOCLDY    55  53  95 CALM      29.80F
$$

LSZ147-162-230900-
LAKE SUPERIOR

STATION/POSITION TIME  TEMP    WIND        PRES    WAVE
                       AIR SEA DIR/SP/G            HT/PER
                 (UTC) (F)     (DEG/KT/KT) (MB)    (FT/S)
W MID LAKE BUOY  0650   40 37  260/  4/  4 1010.3R   1
DEVILS ISLAND    0700   45     260/  5/  6 1010.2S
PORT WING        0740   45      CALM  /  1 1009.8F
SAXON HARBOR     0730   48     190/  3/  5 1009.1F
$$

LMZ867-665-643>646-230900-
LAKE MICHIGAN

STATION/POSITION TIME  TEMP    WIND        PRES    WAVE
                       AIR SEA DIR/SP/G            HT/PER
                 (UTC) (F)     (DEG/KT/KT) (MB)    (FT/S)
CHAMBERS ISLAND  0740   42        CALM     1009.8F
N MID LAKE BUOY  0650   42 39  210/  4/  6 1011.7F   2/ 6
NORTHPORT PIER   0740   44      CALM  /  2 1010.2F
SISTER BAY       0721   45        CALM       N/A
KEWAUNEE LAKESHO 0730   50      30/  4/  4 1009.4F
SHEBOYGAN LAKESH 0700   53      20/  4/  5 1009.4F
PORT WASHINGTON  0740   51     200/  4/  7 1009.8F
ATWATER BUOY     0609   57     220/ 10/ 12 1010.2F
MILWAUKEE LAKESH 0730   58     210/  6/  7   N/A
S MID LAKE BUOY  0650   50 45  230/  8/ 10 1011.0F   2/ 4
KENOSHA   LAKESH 0700   59     210/  5/  9 1010.2
$$

TC  - TEMPERATURE IN CELSIUS
VSB - VISIBILITY IN STATUTE MILES
WCI - WIND CHILL INDEX
HX  - HEAT INDEX





USA.gov is the U.S. government's official web portal to all federal, state and local government web resources and services.